QPF
0.00 0.00 0.00 0.00 0.00 0.00 0.00 0.00 0.00 0.00 0.00 0.00 0.00 0.00 0.00 0.00 0.00 0.00 0.00 0.00 0.00 0.00 0.00 0.00 0.00 0.00 0.00 0.00 0.00 0.00 0.00 0.00 0.00 0.00 0.00 0.00 0.00 0.01 0.06 0.08 0.00 0.00 0.00 0.00 0.00
0.00 0.00 0.00 0.00 0.00 0.00 0.00 0.00 0.00 0.00 0.00 0.00 0.00 0.00 0.00 0.00 0.00 0.00 0.00 0.00 0.00 0.00 0.00 0.00 0.00 0.00 0.00 0.00 0.00 0.00 0.00 0.00 0.00 0.00 0.00 0.00 0.02 0.04 0.10 0.04 0.01 0.00 0.00 0.00 0.00
0.00 0.00 0.00 0.00 0.00 0.00 0.00 0.00 0.00 0.00 0.00 0.00 0.00 0.00 0.00 0.00 0.00 0.00 0.00 0.00 0.00 0.00 0.00 0.00 0.00 0.00 0.00 0.00 0.00 0.00 0.00 0.00 0.00 0.00 0.00 0.00 0.01 0.02 0.03 0.01 0.00 0.00 0.00 0.00 0.00
0.00 0.00 0.00 0.00 0.00 0.00 0.00 0.00 0.00 0.00 0.00 0.00 0.00 0.00 0.00 0.00 0.00 0.00 0.00 0.00 0.00 0.00 0.00 0.00 0.00 0.00 0.00 0.00 0.00 0.00 0.00 0.00 0.00 0.00 0.00 0.00 0.00 0.00 0.01 0.04 0.01 0.01 0.01 0.00 0.00
0.00 0.00 0.00 0.00 0.00 0.00 0.00 0.00 0.00 0.00 0.00 0.00 0.00 0.00 0.00 0.00 0.00 0.00 0.00 0.00 0.00 0.00 0.00 0.00 0.00 0.00 0.00 0.00 0.00 0.00 0.00 0.00 0.00 0.00 0.00 0.00 0.00 0.00 0.00 0.02 0.03 0.03 0.01 0.00 0.00
0.00 0.00 0.00 0.00 0.00 0.00 0.00 0.00 0.00 0.00 0.00 0.00 0.00 0.00 0.00 0.00 0.00 0.00 0.00 0.00 0.00 0.00 0.00 0.00 0.00 0.00 0.00 0.00 0.00 0.00 0.00 0.00 0.00 0.00 0.00 0.00 0.00 0.00 0.01 0.02 0.00 0.01 0.00 0.00 0.00
0.00 0.00 0.00 0.00 0.00 0.00 0.00 0.00 0.00 0.00 0.00 0.00 0.00 0.00 0.00 0.00 0.00 0.00 0.00 0.00 0.00 0.00 0.00 0.00 0.00 0.00 0.00 0.00 0.00 0.00 0.00 0.00 0.00 0.00 0.00 0.00 0.02 0.00 0.00 0.00 0.01 0.01 0.00 0.00 0.00
0.00 0.00 0.00 0.00 0.00 0.00 0.00 0.00 0.00 0.00 0.00 0.00 0.00 0.00 0.00 0.00 0.00 0.00 0.00 0.00 0.00 0.00 0.00 0.00 0.00 0.00 0.00 0.00 0.00 0.00 0.00 0.00 0.00 0.00 0.00 0.00 0.01 0.00 0.00 0.00 0.01 0.00 0.01 0.01 0.00
0.00 0.00 0.00 0.00 0.00 0.00 0.00 0.00 0.00 0.00 0.00 0.00 0.00 0.00 0.00 0.00 0.00 0.00 0.00 0.00 0.00 0.00 0.00 0.00 0.00 0.00 0.00 0.00 0.00 0.00 0.00 0.00 0.00 0.00 0.00 0.00 0.00 0.00 0.00 0.00 0.00 0.00 0.00 0.00 0.00
0.00 0.00 0.00 0.00 0.00 0.00 0.00 0.00 0.00 0.00 0.00 0.00 0.00 0.00 0.00 0.00 0.00 0.00 0.00 0.00 0.00 0.00 0.00 0.00 0.00 0.00 0.00 0.00 0.00 0.00 0.00 0.00 0.00 0.00 0.00 0.00 0.00 0.00 0.00 0.00 0.00 0.01 0.01 0.00 0.00
0.00 0.00 0.00 0.00 0.00 0.00 0.00 0.00 0.00 0.00 0.00 0.00 0.00 0.00 0.00 0.00 0.00 0.00 0.00 0.00 0.00 0.00 0.00 0.00 0.00 0.00 0.00 0.00 0.00 0.00 0.00 0.00 0.00 0.00 0.00 0.00 0.00 0.00 0.00 0.00 0.02 0.02 0.02 0.00 0.00
0.00 0.00 0.00 0.00 0.00 0.00 0.00 0.00 0.00 0.00 0.00 0.00 0.00 0.00 0.00 0.00 0.00 0.00 0.00 0.00 0.00 0.00 0.00 0.00 0.00 0.00 0.00 0.00 0.00 0.00 0.00 0.00 0.00 0.00 0.00 0.01 0.00 0.00 0.00 0.00 0.00 0.06 0.08 0.01 0.00
0.00 0.00 0.00 0.00 0.00 0.00 0.00 0.00 0.00 0.00 0.00 0.00 0.00 0.00 0.00 0.00 0.00 0.00 0.00 0.00 0.00 0.00 0.00 0.00 0.00 0.00 0.00 0.00 0.00 0.00 0.00 0.00 0.00 0.00 0.00 0.00 0.02 0.01 0.00 0.00 0.04 0.11 0.16 0.02 0.00
0.00 0.00 0.00 0.00 0.00 0.00 0.00 0.00 0.00 0.00 0.00 0.00 0.00 0.00 0.00 0.00 0.00 0.00 0.00 0.00 0.00 0.00 0.00 0.00 0.00 0.00 0.00 0.00 0.00 0.00 0.00 0.00 0.00 0.00 0.00 0.00 0.00 0.00 0.02 0.01 0.00 0.07 0.32 0.05 0.01
0.00 0.00 0.00 0.00 0.00 0.00 0.00 0.00 0.00 0.00 0.00 0.00 0.00 0.00 0.00 0.00 0.00 0.00 0.00 0.00 0.00 0.00 0.00 0.00 0.00 0.00 0.00 0.00 0.00 0.00 0.00 0.00 0.00 0.00 0.00 0.00 0.00 0.00 0.03 0.15 0.11 0.08 0.17 0.04 0.06
0.00 0.00 0.00 0.00 0.00 0.00 0.00 0.00 0.00 0.00 0.00 0.00 0.00 0.00 0.00 0.00 0.00 0.00 0.00 0.00 0.00 0.00 0.00 0.00 0.00 0.00 0.00 0.00 0.00 0.00 0.00 0.00 0.00 0.00 0.00 0.00 0.00 0.00 0.03 0.09 0.05 0.01 0.01 0.03 0.07
0.00 0.00 0.00 0.00 0.00 0.00 0.00 0.00 0.00 0.00 0.00 0.00 0.00 0.00 0.00 0.00 0.00 0.00 0.00 0.00 0.00 0.00 0.00 0.00 0.00 0.00 0.00 0.00 0.00 0.00 0.00 0.00 0.00 0.00 0.00 0.00 0.00 0.00 0.00 0.00 0.00 0.00 0.00 0.04 0.07
0.00 0.00 0.00 0.00 0.00 0.00 0.00 0.00 0.00 0.00 0.00 0.00 0.00 0.00 0.00 0.00 0.00 0.00 0.00 0.00 0.00 0.00 0.00 0.00 0.00 0.00 0.00 0.00 0.00 0.00 0.00 0.00 0.00 0.00 0.00 0.00 0.00 0.00 0.00 0.00 0.00 0.01 0.02 0.12 0.13
0.00 0.00 0.00 0.00 0.00 0.00 0.00 0.00 0.00 0.00 0.00 0.00 0.00 0.00 0.00 0.00 0.00 0.00 0.00 0.00 0.00 0.00 0.00 0.00 0.00 0.00 0.00 0.00 0.00 0.00 0.00 0.00 0.00 0.00 0.00 0.00 0.00 0.00 0.00 0.00 0.00 0.00 0.07 0.13 0.08
0.00 0.00 0.00 0.00 0.00 0.00 0.00 0.00 0.00 0.00 0.00 0.00 0.00 0.00 0.00 0.00 0.00 0.00 0.00 0.00 0.00 0.00 0.00 0.00 0.00 0.00 0.00 0.00 0.00 0.00 0.00 0.00 0.00 0.00 0.00 0.00 0.00 0.00 0.00 0.00 0.00 0.00 0.04 0.04 0.03
0.00 0.00 0.00 0.00 0.00 0.00 0.00 0.00 0.00 0.00 0.00 0.00 0.00 0.00 0.00 0.00 0.00 0.00 0.00 0.00 0.00 0.00 0.00 0.00 0.00 0.00 0.00 0.00 0.00 0.00 0.00 0.00 0.00 0.00 0.00 0.00 0.00 0.00 0.00 0.00 0.00 0.00 0.02 0.02 0.01
0.00 0.00 0.00 0.00 0.00 0.00 0.00 0.00 0.00 0.00 0.00 0.00 0.00 0.00 0.00 0.00 0.00 0.00 0.00 0.00 0.00 0.00 0.00 0.00 0.00 0.00 0.00 0.00 0.00 0.00 0.00 0.00 0.00 0.00 0.00 0.00 0.00 0.00 0.00 0.00 0.00 0.00 0.00 0.01 0.01
0.00 0.00 0.00 0.00 0.00 0.00 0.00 0.00 0.00 0.00 0.00 0.00 0.00 0.00 0.00 0.00 0.00 0.00 0.00 0.00 0.00 0.00 0.00 0.00 0.00 0.00 0.00 0.00 0.00 0.00 0.00 0.00 0.00 0.00 0.00 0.00 0.00 0.00 0.00 0.00 0.00 0.00 0.00 0.00 0.01
0.00 0.00 0.00 0.00 0.00 0.00 0.00 0.00 0.00 0.00 0.00 0.00 0.00 0.00 0.00 0.00 0.00 0.00 0.00 0.00 0.01 0.00 0.00 0.00 0.00 0.00 0.00 0.00 0.00 0.00 0.00 0.00 0.00 0.00 0.00 0.00 0.00 0.00 0.00 0.00 0.00 0.00 0.00 0.00 0.00
0.00 0.00 0.00 0.00 0.00 0.00 0.00 0.00 0.00 0.00 0.00 0.00 0.00 0.02 0.03 0.01 0.00 0.00 0.00 0.00 0.00 0.00 0.00 0.00 0.00 0.00 0.00 0.00 0.00 0.01 0.00 0.00 0.00 0.00 0.00 0.00 0.00 0.00 0.00 0.00 0.00 0.00 0.00 0.00 0.00
0.00 0.00 0.00 0.00 0.00 0.00 0.00 0.00 0.00 0.00 0.00 0.00 0.01 0.02 0.08 0.08 0.04 0.01 0.01 0.01 0.00 0.00 0.00 0.00 0.00 0.00 0.00 0.00 0.00 0.00 0.00 0.00 0.00 0.00 0.00 0.00 0.00 0.00 0.00 0.00 0.00 0.00 0.00 0.00 0.00
0.00 0.00 0.00 0.00 0.00 0.00 0.00 0.00 0.00 0.00 0.00 0.00 0.00 0.00 0.01 0.02 0.00 0.01 0.01 0.01 0.00 0.00 0.00 0.00 0.00 0.00 0.00 0.00 0.00 0.00 0.00 0.00 0.00 0.00 0.00 0.00 0.00 0.00 0.00 0.00 0.00 0.00 0.00 0.00 0.00
MSLP
1019.21 1018.90 1018.40 1017.86 1017.45 1017.06 1016.59 1016.14 1015.67 1015.34 1015.01 1014.53 1014.10 1013.76 1013.38 1013.01 1012.29 1011.77 1010.62 1008.19 1007.72 1007.32 1007.62 1007.34 1007.03 1006.82 1006.77 1006.73 1006.44 1006.27 1007.05 1006.91 1005.98 1006.40 1006.55 1007.89 1009.04 1010.44 1009.55 1009.18 1008.61 1008.31 1009.55 1010.44 1010.42
1019.42 1018.92 1018.30 1017.88 1017.43 1016.89 1016.46 1016.03 1015.50 1015.17 1014.85 1014.43 1013.98 1013.65 1013.36 1013.04 1012.26 1010.16 1007.02 1006.84 1007.04 1007.19 1007.34 1007.32 1007.17 1006.71 1006.97 1006.50 1006.40 1006.43 1006.52 1006.00 1004.95 1004.75 1005.51 1006.92 1008.61 1010.95 1011.42 1010.65 1010.88 1009.73 1009.94 1010.34 1010.86
1019.32 1018.79 1018.32 1017.86 1017.27 1016.68 1016.22 1015.77 1015.28 1014.89 1014.51 1014.21 1013.79 1013.43 1013.20 1012.97 1011.85 1007.38 1005.45 1005.78 1006.55 1006.92 1007.11 1007.06 1006.92 1007.08 1006.90 1006.25 1006.14 1005.78 1005.83 1005.33 1004.10 1004.27 1005.22 1006.94 1009.00 1010.51 1009.78 1009.46 1010.37 1010.13 1010.28 1011.12 1011.63
1019.18 1018.73 1018.17 1017.60 1016.98 1016.43 1015.89 1015.41 1014.85 1014.56 1014.26 1013.97 1013.59 1013.27 1013.02 1012.73 1009.97 1005.95 1005.41 1005.52 1006.34 1006.82 1007.03 1006.93 1006.86 1006.94 1006.55 1006.33 1005.43 1005.56 1004.91 1004.50 1003.83 1003.67 1004.83 1006.64 1008.69 1009.67 1008.42 1008.95 1010.02 1009.85 1010.84 1011.50 1012.15
1019.23 1018.68 1018.12 1017.44 1016.78 1016.15 1015.63 1015.06 1014.47 1014.21 1014.01 1013.73 1013.30 1012.98 1012.74 1011.76 1008.01 1005.64 1005.69 1006.05 1006.52 1006.79 1006.76 1006.80 1006.68 1006.42 1006.13 1005.53 1005.10 1004.95 1004.34 1003.77 1003.30 1003.59 1005.06 1006.41 1007.37 1007.95 1008.82 1008.38 1009.65 1010.50 1011.11 1012.01 1012.70
1019.20 1018.64 1017.97 1017.20 1016.47 1015.86 1015.27 1014.67 1014.11 1013.80 1013.51 1013.27 1012.93 1012.83 1012.42 1010.14 1005.23 1004.95 1005.51 1006.08 1005.94 1006.29 1006.23 1006.16 1005.86 1005.27 1005.24 1005.00 1004.94 1003.95 1003.51 1003.42 1003.09 1003.31 1004.46 1006.10 1007.71 1007.35 1009.48 1009.41 1010.16 1010.83 1011.66 1012.18 1012.59
1019.09 1018.53 1017.79 1016.95 1016.18 1015.42 1014.79 1014.18 1013.63 1013.23 1012.89 1012.69 1012.48 1012.23 1010.97 1007.44 1004.95 1005.20 1005.00 1005.53 1005.54 1005.59 1005.63 1005.04 1004.78 1005.01 1004.61 1004.56 1003.45 1003.36 1003.39 1003.27 1003.21 1003.27 1003.83 1005.67 1007.90 1008.29 1008.90 1009.19 1010.36 1011.00 1011.79 1012.31 1012.86
1018.92 1018.32 1017.60 1016.72 1015.86 1014.99 1014.23 1013.63 1012.98 1012.56 1012.33 1012.11 1012.09 1011.54 1009.46 1005.23 1004.40 1004.87 1004.92 1004.88 1004.92 1004.90 1004.90 1004.37 1004.14 1004.25 1004.47 1004.17 1003.73 1003.80 1003.22 1003.57 1003.33 1003.22 1003.50 1004.51 1007.42 1008.18 1008.51 1009.23 1010.28 1010.74 1011.95 1012.92 1013.46
1018.72 1018.02 1017.23 1016.34 1015.52 1014.60 1013.60 1012.78 1012.09 1011.75 1011.88 1011.91 1011.90 1011.01 1007.74 1004.21 1004.24 1003.73 1003.90 1004.18 1004.37 1004.42 1004.32 1004.03 1004.32 1004.54 1004.71 1004.98 1004.78 1003.86 1003.91 1003.75 1003.29 1002.90 1003.29 1004.25 1006.60 1007.82 1008.41 1009.15 1010.18 1011.04 1012.03 1013.11 1014.03
1018.48 1017.67 1016.82 1015.93 1015.15 1014.33 1013.13 1011.50 1011.10 1011.29 1011.44 1011.36 1010.56 1010.12 1006.56 1004.00 1003.21 1003.21 1003.22 1003.48 1003.85 1004.24 1004.52 1004.50 1004.94 1005.25 1005.32 1005.48 1005.29 1004.47 1003.98 1003.44 1002.95 1002.74 1003.15 1004.34 1006.17 1007.68 1008.20 1008.79 1009.65 1010.73 1011.91 1013.00 1014.22
1018.35 1017.44 1016.44 1015.43 1014.66 1014.27 1013.25 1011.69 1011.28 1011.10 1010.04 1008.84 1007.74 1006.48 1004.15 1002.99 1002.81 1003.06 1003.07 1003.42 1003.71 1004.20 1004.81 1004.84 1005.51 1005.54 1005.33 1004.80 1004.33 1003.80 1003.60 1003.32 1001.90 1001.38 1002.63 1004.22 1006.30 1007.38 1007.73 1008.56 1009.35 1010.41 1011.72 1013.00 1014.10
1018.25 1017.31 1016.26 1015.03 1013.95 1013.61 1013.77 1012.23 1009.50 1008.16 1007.07 1006.33 1005.44 1004.85 1003.70 1003.23 1003.02 1002.60 1002.86 1003.60 1003.91 1004.41 1004.66 1005.06 1005.01 1004.54 1004.18 1003.86 1003.61 1003.30 1003.11 1002.63 1001.80 1001.02 1002.21 1003.87 1006.06 1007.21 1007.60 1007.83 1008.44 1010.02 1011.52 1012.98 1014.46
1018.08 1017.12 1016.17 1014.67 1013.34 1012.45 1011.94 1010.02 1007.94 1007.18 1007.00 1004.09 1002.68 1002.46 1002.42 1002.70 1002.20 1001.90 1002.45 1003.15 1003.85 1004.42 1004.52 1004.60 1003.86 1003.59 1003.34 1002.97 1002.80 1002.54 1002.50 1002.06 1002.44 1002.36 1002.83 1004.10 1006.62 1007.23 1007.98 1007.89 1008.15 1010.14 1011.45 1012.64 1013.69
1017.98 1016.99 1016.32 1014.65 1012.89 1012.28 1010.48 1008.34 1007.45 1007.43 1006.90 1002.90 1001.22 1000.47 1001.48 1001.97 1001.58 1001.16 1001.54 1002.67 1003.43 1003.90 1004.09 1003.73 1002.96 1002.74 1002.46 1002.26 1001.93 1001.88 1001.58 1001.46 1002.20 1003.03 1003.69 1004.13 1006.72 1007.82 1008.04 1008.71 1008.78 1009.77 1012.01 1012.84 1013.12
1017.50 1016.87 1016.11 1015.98 1014.85 1012.65 1009.86 1008.64 1008.11 1007.92 1006.28 1000.77 999.91 999.18 1000.12 1001.18 1000.53 1000.88 1001.05 1001.92 1002.75 1003.40 1003.69 1002.95 1002.15 1001.81 1001.47 1001.04 1001.10 1001.27 1001.29 1001.89 1002.38 1003.65 1004.44 1005.15 1006.49 1006.72 1008.76 1010.61 1010.99 1011.92 1011.29 1012.11 1012.55
1016.89 1016.17 1015.92 1014.36 1014.87 1011.72 1010.01 1009.08 1008.43 1008.33 1005.30 1001.24 999.66 999.62 1000.19 1000.75 1000.95 1000.78 1001.28 1001.57 1002.17 1002.97 1002.90 1002.49 1001.46 1001.06 1000.48 1000.38 1000.60 1000.95 1001.69 1002.32 1002.85 1003.95 1005.29 1005.54 1006.88 1007.46 1008.52 1009.49 1010.18 1010.95 1010.25 1011.74 1012.62
1016.23 1014.88 1015.50 1014.35 1012.23 1010.31 1009.85 1009.36 1009.26 1007.56 1004.07 1001.36 1000.83 1000.24 1000.03 1000.39 1000.74 1000.74 1001.25 1001.75 1002.27 1002.92 1002.99 1002.52 1001.45 1000.48 1000.10 1000.14 1000.27 1000.96 1002.26 1003.55 1004.32 1004.84 1005.65 1005.92 1006.50 1007.63 1007.63 1008.41 1008.03 1008.57 1010.10 1011.83 1012.29
1015.52 1013.68 1012.64 1012.26 1011.10 1010.30 1010.27 1010.14 1009.31 1006.72 1004.55 1002.64 1001.78 1000.76 1000.58 1000.08 1000.27 1000.63 1001.13 1001.70 1001.93 1002.55 1003.10 1002.80 1001.73 1000.47 999.65 999.46 1000.20 1001.01 1001.99 1003.57 1004.62 1005.52 1006.18 1005.81 1006.87 1006.92 1007.09 1007.47 1007.55 1008.11 1010.42 1011.54 1012.85
1014.87 1012.88 1011.77 1010.55 1010.40 1010.21 1010.76 1010.36 1008.45 1006.76 1005.12 1004.15 1002.95 1002.05 1001.07 1000.40 1000.05 1000.25 1000.56 1000.95 1001.20 1001.82 1002.75 1002.54 1001.49 1000.07 999.37 999.21 999.82 1000.56 1001.24 1002.13 1003.96 1004.89 1006.22 1006.74 1007.64 1007.16 1007.08 1007.21 1008.09 1008.69 1010.27 1011.47 1012.76
1015.88 1013.51 1010.73 1009.24 1009.63 1010.27 1010.86 1009.93 1008.35 1007.16 1006.04 1005.32 1004.56 1003.90 1002.74 1001.71 1001.78 1001.84 1001.15 1000.00 1000.28 1000.63 1001.30 1001.86 1002.10 1000.25 999.46 998.80 999.12 999.97 1000.49 1002.16 1003.87 1005.55 1006.32 1006.79 1007.08 1006.98 1006.51 1006.97 1007.26 1008.65 1010.27 1011.27 1012.20
1015.73 1013.29 1009.95 1009.33 1009.87 1010.53 1010.73 1009.40 1007.93 1006.66 1005.83 1005.38 1004.79 1004.26 1003.67 1002.86 1002.77 1002.88 1002.02 1001.12 999.59 1000.03 1000.43 1001.22 1002.04 1000.64 1000.11 999.13 999.37 999.97 1000.79 1001.99 1003.69 1005.14 1006.23 1007.04 1007.49 1005.56 1005.75 1006.01 1006.73 1007.58 1008.83 1009.87 1010.64
1016.43 1013.47 1009.50 1009.28 1010.47 1010.23 1009.89 1008.95 1007.60 1006.53 1006.08 1005.58 1005.01 1004.88 1004.39 1003.61 1003.40 1003.17 1002.49 1001.72 1000.53 1001.01 1000.82 1000.45 1001.15 1001.47 1000.46 999.62 999.64 999.84 1000.66 1001.78 1003.96 1005.39 1005.75 1006.44 1006.62 1005.02 1004.68 1004.92 1005.29 1006.63 1007.84 1008.83 1009.18
1017.92 1013.80 1009.49 1009.53 1010.60 1010.78 1010.19 1009.43 1008.18 1007.41 1007.25 1007.41 1007.37 1006.25 1005.25 1004.84 1004.49 1003.65 1002.76 1001.49 1001.16 1002.16 1001.94 1000.20 1000.77 1001.48 1001.00 1000.66 999.62 1000.01 1000.41 1001.62 1002.89 1004.57 1005.78 1006.39 1005.80 1004.70 1004.39 1004.80 1004.78 1005.81 1007.06 1008.21 1008.87
1018.21 1014.75 1011.80 1011.25 1011.61 1012.23 1011.80 1010.38 1009.30 1008.33 1008.28 1008.51 1008.77 1008.60 1007.81 1006.40 1005.23 1004.61 1003.47 1001.99 1001.55 1002.32 1002.20 1000.55 1000.58 1000.94 1000.98 1000.83 1000.76 1000.56 1000.72 1001.49 1002.77 1004.33 1005.31 1005.32 1005.22 1004.85 1004.36 1004.67 1004.74 1005.19 1006.46 1007.53 1008.54
1017.98 1016.44 1016.04 1014.31 1013.30 1013.40 1012.66 1011.44 1010.14 1008.99 1008.88 1009.11 1009.45 1010.82 1011.05 1010.01 1007.74 1006.56 1005.86 1004.09 1002.33 1003.62 1003.45 1002.96 1001.77 1001.08 1000.66 1000.35 1000.38 1000.59 1000.90 1001.30 1002.44 1003.17 1004.09 1004.55 1004.41 1004.38 1004.41 1004.36 1004.48 1004.85 1005.99 1007.16 1008.32
1019.02 1018.69 1017.84 1016.80 1015.10 1014.22 1012.91 1011.77 1010.63 1009.83 1009.99 1010.04 1010.71 1011.07 1011.08 1011.19 1011.57 1010.30 1009.04 1007.84 1005.88 1004.86 1004.62 1004.05 1003.65 1002.35 1001.28 1000.69 1000.45 1000.56 1000.61 1001.00 1001.43 1002.68 1003.71 1004.36 1004.30 1003.65 1004.15 1004.29 1004.49 1004.68 1005.62 1006.88 1008.18
1020.39 1019.90 1019.16 1017.54 1016.00 1014.81 1013.72 1012.80 1011.70 1011.16 1010.73 1010.88 1010.83 1010.77 1010.15 1009.73 1010.26 1010.69 1009.27 1008.36 1008.11 1006.63 1005.51 1005.17 1005.31 1004.94 1003.17 1001.63 1001.03 1000.31 1000.23 1000.75 1001.26 1001.40 1002.52 1003.25 1004.09 1004.06 1005.04 1005.39 1004.95 1005.23 1005.86 1006.73 1007.97
Thickness
5703 5705 5709 5713 5716 5718 5722 5725 5729 5731 5733 5737 5741 5745 5749 5754 5761 5766 5770 5794 5802 5810 5811 5813 5815 5814 5815 5808 5816 5817 5771 5768 5789 5793 5806 5796 5774 5774 5792 5790 5795 5800 5786 5784 5791
5700 5704 5709 5712 5715 5718 5721 5724 5727 5729 5731 5735 5739 5743 5747 5751 5758 5770 5803 5805 5806 5808 5804 5798 5794 5803 5791 5800 5801 5789 5767 5780 5815 5821 5810 5798 5785 5758 5764 5766 5769 5780 5789 5791 5786
5700 5704 5707 5710 5715 5719 5722 5724 5727 5729 5731 5734 5738 5742 5745 5749 5755 5785 5814 5812 5808 5806 5804 5802 5800 5794 5784 5794 5793 5793 5774 5799 5820 5823 5818 5794 5775 5767 5765 5777 5780 5771 5776 5777 5775
5698 5701 5705 5710 5714 5718 5722 5725 5729 5730 5731 5734 5737 5741 5744 5748 5749 5801 5812 5812 5806 5803 5798 5794 5791 5780 5780 5776 5798 5782 5800 5808 5819 5828 5816 5796 5775 5765 5784 5783 5780 5785 5779 5774 5767
5696 5699 5703 5709 5713 5718 5722 5725 5730 5731 5731 5734 5737 5741 5744 5746 5766 5804 5806 5804 5801 5798 5790 5784 5779 5780 5772 5785 5793 5788 5801 5814 5824 5825 5808 5802 5789 5775 5775 5795 5789 5777 5774 5766 5762
5693 5697 5702 5708 5714 5718 5722 5726 5730 5732 5733 5735 5738 5740 5742 5738 5805 5808 5805 5800 5800 5794 5790 5789 5786 5795 5786 5785 5784 5801 5807 5810 5818 5825 5813 5789 5780 5795 5772 5782 5778 5773 5763 5762 5763
5691 5695 5701 5707 5713 5718 5722 5727 5731 5734 5736 5738 5739 5743 5746 5759 5804 5802 5805 5798 5801 5798 5788 5800 5802 5792 5794 5783 5808 5807 5795 5802 5806 5818 5814 5792 5762 5770 5782 5783 5767 5763 5761 5758 5757
5689 5693 5699 5705 5712 5718 5723 5728 5733 5736 5738 5740 5740 5744 5742 5796 5804 5799 5800 5796 5802 5804 5800 5808 5808 5798 5794 5798 5796 5784 5795 5764 5792 5808 5813 5796 5739 5769 5780 5771 5758 5761 5755 5747 5747
5687 5691 5698 5704 5710 5717 5725 5731 5736 5739 5738 5738 5738 5740 5746 5802 5789 5803 5804 5791 5796 5799 5802 5809 5799 5785 5783 5764 5752 5775 5748 5761 5776 5804 5805 5791 5756 5772 5779 5771 5759 5755 5750 5742 5737
5684 5690 5697 5703 5709 5715 5725 5737 5740 5738 5737 5737 5744 5733 5763 5774 5794 5800 5806 5800 5789 5787 5779 5780 5771 5754 5753 5746 5719 5747 5753 5763 5772 5792 5797 5782 5762 5767 5774 5770 5763 5754 5746 5741 5732
5680 5687 5695 5702 5708 5710 5719 5730 5731 5728 5738 5740 5750 5756 5778 5795 5802 5790 5798 5788 5785 5774 5747 5762 5739 5727 5743 5760 5769 5772 5766 5763 5789 5811 5792 5783 5761 5762 5771 5766 5757 5752 5742 5736 5730
5676 5683 5691 5700 5708 5710 5708 5717 5734 5743 5736 5760 5766 5769 5781 5787 5769 5783 5796 5766 5761 5743 5756 5745 5731 5759 5772 5774 5773 5772 5762 5766 5792 5811 5795 5781 5755 5761 5765 5765 5763 5749 5736 5730 5723
5673 5680 5686 5698 5707 5715 5718 5727 5748 5752 5725 5761 5777 5778 5776 5781 5770 5774 5783 5769 5754 5742 5746 5735 5755 5773 5770 5768 5767 5767 5762 5771 5778 5791 5794 5780 5744 5751 5757 5766 5761 5744 5735 5728 5723
5670 5677 5680 5693 5708 5709 5716 5738 5745 5744 5697 5745 5769 5784 5783 5777 5764 5792 5793 5771 5755 5742 5747 5749 5770 5767 5764 5763 5773 5751 5788 5793 5786 5768 5736 5778 5711 5734 5742 5743 5754 5751 5722 5720 5726
5670 5673 5678 5678 5685 5698 5718 5730 5734 5724 5664 5769 5772 5808 5789 5768 5776 5774 5793 5773 5747 5747 5748 5747 5758 5761 5760 5771 5783 5765 5789 5782 5784 5759 5743 5753 5728 5745 5733 5710 5717 5716 5734 5727 5726
5669 5673 5674 5685 5679 5702 5715 5722 5717 5677 5671 5745 5768 5764 5759 5764 5764 5772 5768 5777 5772 5749 5754 5754 5780 5774 5775 5788 5787 5792 5777 5772 5772 5749 5711 5742 5728 5725 5719 5720 5721 5713 5739 5724 5715
5668 5678 5673 5679 5691 5708 5711 5703 5667 5658 5731 5743 5746 5758 5754 5749 5752 5756 5747 5739 5727 5712 5716 5744 5755 5775 5786 5770 5784 5775 5752 5710 5706 5708 5705 5752 5734 5721 5732 5731 5741 5741 5731 5717 5719
5668 5682 5688 5690 5697 5702 5696 5673 5653 5691 5708 5739 5738 5744 5737 5750 5750 5751 5740 5726 5743 5735 5717 5710 5711 5758 5784 5773 5756 5755 5745 5705 5693 5697 5713 5747 5720 5725 5741 5741 5746 5749 5721 5716 5699
5667 5682 5689 5696 5697 5696 5672 5647 5663 5687 5709 5707 5716 5712 5725 5748 5750 5747 5739 5735 5744 5743 5710 5712 5721 5773 5784 5790 5779 5758 5743 5763 5735 5744 5711 5714 5713 5724 5736 5737 5731 5731 5714 5707 5698
5651 5666 5684 5701 5697 5682 5656 5650 5668 5687 5697 5697 5680 5698 5693 5718 5718 5705 5721 5755 5748 5757 5753 5733 5707 5756 5774 5786 5785 5769 5782 5734 5718 5700 5696 5708 5703 5697 5724 5724 5731 5721 5707 5704 5699
5644 5656 5685 5693 5686 5663 5641 5657 5676 5696 5697 5688 5685 5689 5697 5701 5702 5698 5709 5731 5764 5761 5759 5748 5718 5737 5758 5755 5748 5752 5749 5752 5733 5718 5692 5685 5681 5730 5728 5729 5723 5721 5716 5712 5714
5631 5638 5684 5686 5650 5654 5650 5666 5680 5687 5691 5688 5692 5688 5688 5700 5693 5692 5698 5713 5749 5742 5735 5751 5725 5705 5727 5763 5771 5768 5756 5743 5695 5713 5714 5691 5681 5747 5740 5742 5740 5729 5722 5718 5721
5610 5634 5675 5671 5633 5639 5652 5656 5669 5666 5665 5657 5653 5677 5687 5682 5675 5691 5703 5732 5736 5720 5715 5747 5715 5693 5714 5729 5753 5745 5757 5755 5730 5716 5702 5682 5692 5745 5747 5739 5741 5729 5723 5716 5712
5603 5618 5638 5643 5639 5625 5623 5636 5641 5659 5652 5640 5635 5645 5644 5659 5683 5682 5696 5720 5725 5713 5719 5734 5720 5709 5695 5707 5731 5731 5742 5746 5729 5690 5695 5699 5713 5726 5733 5729 5737 5728 5724 5715 5705
5596 5600 5598 5600 5608 5604 5611 5621 5627 5632 5640 5639 5635 5614 5603 5611 5643 5656 5661 5686 5707 5700 5698 5690 5701 5724 5730 5739 5739 5728 5729 5736 5726 5724 5697 5713 5710 5716 5723 5729 5737 5731 5725 5713 5698
5570 5568 5573 5575 5590 5592 5601 5607 5614 5623 5618 5616 5601 5604 5607 5598 5593 5606 5620 5635 5665 5680 5670 5686 5677 5707 5715 5735 5736 5724 5727 5729 5734 5725 5715 5704 5708 5724 5724 5731 5730 5732 5723 5710 5698
5548 5549 5552 5564 5573 5579 5582 5587 5596 5602 5610 5607 5606 5598 5607 5615 5599 5602 5621 5630 5632 5656 5656 5667 5661 5659 5675 5718 5722 5702 5717 5722 5727 5735 5721 5706 5700 5721 5712 5712 5721 5725 5716 5709 5698